User: anonymous   Login
Location: Schommer Observatory
(40.5200°N, 74.4500°W)
Time: 01:23:12
(UTC-04:00)
Language:

ISS - Orbit

View from above orbital plane
View from above orbital plane
View from above satellite
View from above satellite

Ground track
Ground track

The orbit data is extracted from the following two-line orbital elements,

1 25544U 98067A   18267.11046221  .00016717  00000-0  10270-3 0  9042
2 25544  51.6376 245.7349 0004351 199.1875 160.9114 15.53704150 13891
Epoch (UTC): 24 September 2018 02:39:03
Eccentricity: 0.0004351
inclination: 51.6376°
perigee height: 403 km
apogee height: 409 km
right ascension of ascending node: 245.7349°
argument of perigee: 199.1875°
revolutions per day: 15.53704150
mean anomaly at epoch: 160.9114°
orbit number at epoch: 1389

The dashed part of the orbit path shows where the satellite is in the earth's shadow,  

DLR